Home > Weather > Kumamoto > Past weeks

Flag for Japan Past Weather in Kumamoto, Japan — Yesterday and Last 2 Weeks

Now
72 °F

Sprinkles. Overcast.


Feels Like: 66 °F
Forecast: 74 / 80 °F
Wind: 2 mph from North

Location: Kumamoto

Current Time: Jun 29, 2016 at 3:49:39 AM

Latest Report: Jun 29, 2016 at 3:00 AM


Visibility: 9 mi

Pressure: 29.90 "Hg

Humidity: 100%

Dew Point: 72 °F

Location of KumamotoLocation

Past Weather in Kumamoto — Graph

°F

Kumamoto Temperature Yesterday

Maximum temperature yesterday: 73 °F (at 8:00 PM)
Minimum temperature yesterday: 66 °F (at 12:00 AM)
Average temperature yesterday: 70 °F

High & Low Weather Summary for the Past Weeks

 TemperatureHumidityPressure
High86 °F (Jun 18, 2:00 PM)100% (Jun 20, 11:00 PM)29.98 "Hg (Jun 20, 11:00 PM)
Low63 °F (Jun 26, 5:00 AM)47% (Jun 14, 4:00 PM)29.54 "Hg (Jun 16, 4:00 PM)
Average75 °F87%29.77 "Hg
* Reported Jun 14 2:00 AM — Jun 29 2:00 AM, Kumamoto, Weather by CustomWeather, © 2016

Note: Actual official high and low records may vary slightly from our data, if they occured in-between our weather recording intervals... More about our weather records

Advertising

Kumamoto Weather History for the Previous 24 Hours

Scroll right to see more
 ConditionsComfort  
Time TempWeatherWind HumidityBarometerVisibility
2:00 AM
Wed, Jun 29
72 °FMild.2 mph100%29.91 "HgN/A
1:00 AM72 °FMild.2 mph100%29.92 "HgN/A
12:00 AM72 °FMild.1 mph100%29.91 "HgN/A
11:00 PM
Tue, Jun 28
72 °FMild.2 mph100%29.94 "HgN/A
10:00 PM72 °FMild.1 mph100%29.93 "HgN/A
9:00 PM73 °FOvercast.3 mph99%29.91 "Hg16 mi
8:00 PM73 °FMild.2 mph97%29.88 "HgN/A
7:00 PM73 °FMild.5 mph99%29.88 "HgN/A
6:00 PM73 °FSprinkles. Overcast.2 mph99%29.87 "Hg9 mi
5:00 PM73 °FMild.6 mph97%29.86 "HgN/A
4:00 PM73 °FMild.2 mph100%29.82 "HgN/A
3:00 PM72 °FSprinkles. Low clouds.3 mph100%29.84 "Hg3 mi
2:00 PM72 °FMild.1 mph100%29.84 "HgN/A
1:00 PM71 °FMild.1 mph100%29.85 "HgN/A
12:00 PM71 °FThunderstorms. Low clouds.3 mph99%29.84 "Hg5 mi
11:00 AM72 °FMild.3 mph93%29.85 "HgN/A
10:00 AM70 °FMild.1 mph98%29.85 "HgN/A
9:00 AM68 °FSprinkles. Low clouds.3 mph100%29.86 "Hg4 mi
8:00 AM68 °FMild.1 mph100%29.86 "HgN/A
7:00 AM67 °FMild.1 mph100%29.84 "HgN/A
6:00 AM67 °FRain showers. Overcast.3 mph100%29.83 "Hg2 mi
5:00 AM67 °FMild.2 mph100%29.82 "HgN/A
4:00 AM67 °FMild.2 mph100%29.79 "HgN/A
3:00 AM67 °FSprinkles. Overcast.1 mph100%29.79 "Hg5 mi
Weather by CustomWeather, © 2016

See weather overviewHow to use our weather pages